星链-3732 (STARLINK-3732 )

导读

STARLINK-3732是美国SpaceX星链项目中的低轨通信卫星,于2022年3月19日发射。它运行在近地轨道,属于星链一代组网卫星,承担全球卫星互联网服务部署任务。作为星链星座的组成单元,该卫星为后续实现全球高速低延迟宽带覆盖、填补偏远地区网络空白提供支撑,是星链大规模组网进程中的重要一环,助力构建覆盖全球的天基通信基础设施。

Basic Information
目录编号:
52126
目录名称:
STARLINK-3732
国际标识:
2022-029AQ
轨道中心:
EARTH
卫星名称:
星链-3732
卫星全名:
星链-3732 (STARLINK-3732 )
卫星状态:
在轨 (已飞行1551 天)
发射日期:
2022-03-19 UTC
国别 :
美国 (US)
星等 :
--
Orbit Information
数据来源 国际轨道数据 AOE轨道数据
星历时间 2026-06-17T12:33:18+0800
12小时前
查看轨道信息
2026-06-13T00:00:00+0800
5天前
查看轨道信息
半长轴 6917.904km 6917.882km
偏心率 0.0001307 0.000122
轨道倾角 53.161° 53.160°
近地点辐角 91.693° 81.302°
升交点赤经 342.350° 2.682°
平近点角 268.421° 176.636°
近地点 538.862km 538.901km
远地点 540.672km 540.589km
周期 95.438分钟 95.438分钟
每日圈数 15.088324 15.088396
Detailed Information
固有亮度:
5
最大亮度:
2.5
卫星平台:
Starlink v1.5
覆盖范围:
全球
运营商:
太空探索技术公司
运营商所在国:
美国
制造商(研发单位):
太空探索技术公司
制造商所在国:
美国
使用方式:
暂无
Satellite Introduction
星链(Starlink)计划是由太空探索技术公司(SpaceX)提出的一个巨型低轨卫星互联网星座项目,计划在2019年至2024年间在太空搭建由约1.2万颗卫星组成的“星链”网络,其中1584颗将部署在地球上空550千米处的近地轨道,并从2020年开始工作。该卫星仍在工作。
2D Orbit Map
3D Orbit Map
Orbit Altitude Analysis Chart
Orbit Inclination Analysis Chart
Orbit Comprehensive Analysis Chart
View Comprehensive Chart